Weather History for Columbus, OH

Change the Weather History Date:

Tuesday, May 28, 2013

  Actual Average Record
Temperature  
Mean Temperature 75 °F 66 °F  
Max Temperature 86 °F 76 °F 94 °F (1911)
Min Temperature 63 °F 56 °F 36 °F (1971)
Degree Days  
Heating Degree Days 0 3  
Month to date heating degree days 97 139  
Since 1 July heating degree days 5154 5221  
Cooling Degree Days 10 4  
Month to date cooling degree days 97 58  
Year to date cooling degree days 120 70  
Growing Degree Days 24 (Base 50)    
Moisture  
Dew Point 59 °F    
Average Humidity 59    
Maximum Humidity 78    
Minimum Humidity 40    
Precipitation  
Precipitation T in 0.14 in 2.67 in (2000)
Month to date precipitation 1.52 3.72  
Year to date precipitation 12.37 15.12  
Snow  
Snow 0.00 in 0.00 in 0.00 in ()
Month to date snowfall 0.0 0.0  
Since 1 July snowfall 41.2 26.7  
Snow Depth 0.00 in    
Sea Level Pressure  
Sea Level Pressure 29.98 in    
Wind  
Wind Speed 11 mph (SSW)    
Max Wind Speed 26 mph    
Max Gust Speed 32 mph    
Visibility 10 miles    
Events Rain    
T = Trace of Precipitation, MM = Missing Value Source: NWS Daily Summary

Daily Weather History Graph

Daily Weather History Graph

Search for Another Location

Airport:

Trip Planner

Search our weather history database for the weather conditions in past years. The results will help you decide how hot, cold, wet, or windy it might be!

Date:

Astronomy

May. 28, 2013 Rise Set
Actual Time 6:06 AM EDT 8:51 PM EDT
Civil Twilight 5:34 AM EDT 9:23 PM EDT
Nautical Twilight 4:54 AM EDT 10:03 PM EDT
Astronomical Twilight 4:09 AM EDT 10:49 PM EDT
Moon No Moon Rise 9:53 AM EDT (5/28)
Length of Visible Light 15h 48m
Length of Day
14h 44m
Waning Gibbous, 83% of the Moon is Illuminated
May 28
Waning Gibbous
May 31
Last Quarter
Jun 8
New
Jun 16
First Quarter
Jun 23
Full

Hourly Weather History & Observations

Time (EDT) Temp. Heat Index Dew Point Humidity Pressure Visibility Wind Dir Wind Speed Gust Speed Precip Events Conditions
12:51 AM 64.0 °F - 55.0 °F 73% 30.01 in 10.0 mi SSE 9.2 mph - 0.00 in Rain Light Rain
1:51 AM 64.0 °F - 55.0 °F 73% 29.97 in 10.0 mi SE 9.2 mph - 0.00 in   Overcast
2:51 AM 64.9 °F - 55.9 °F 73% 29.96 in 10.0 mi South 5.8 mph - N/A   Mostly Cloudy
3:51 AM 64.9 °F - 57.0 °F 75% 29.97 in 10.0 mi South 5.8 mph - N/A   Partly Cloudy
4:51 AM 68.0 °F - 57.9 °F 70% 29.98 in 10.0 mi South 8.1 mph - N/A   Mostly Cloudy
5:51 AM 66.9 °F - 59.0 °F 76% 29.99 in 10.0 mi South 5.8 mph - N/A   Overcast
6:51 AM 66.9 °F - 59.0 °F 76% 30.01 in 10.0 mi South 5.8 mph - N/A   Overcast
7:51 AM 69.1 °F - 59.0 °F 70% 30.01 in 10.0 mi SSW 5.8 mph - N/A   Overcast
8:51 AM 70.0 °F - 60.1 °F 71% 30.03 in 10.0 mi Calm Calm - 0.00 in Rain Light Rain
9:51 AM 73.9 °F - 62.1 °F 66% 30.03 in 7.0 mi SSW 10.4 mph - 0.00 in   Mostly Cloudy
10:51 AM 78.1 °F - 63.0 °F 60% 30.02 in 10.0 mi SSW 11.5 mph - N/A   Mostly Cloudy
11:51 AM 80.1 °F 81.2 °F 62.1 °F 54% 30.01 in 10.0 mi SW 16.1 mph 25.3 mph N/A   Scattered Clouds
12:51 PM 81.0 °F 81.9 °F 62.1 °F 52% 29.99 in 10.0 mi SSW 15.0 mph 20.7 mph N/A   Mostly Cloudy
1:51 PM 84.0 °F 84.9 °F 63.0 °F 49% 29.98 in 10.0 mi SW 18.4 mph 26.5 mph N/A   Mostly Cloudy
2:51 PM 82.9 °F 83.3 °F 61.0 °F 47% 29.97 in 10.0 mi SW 21.9 mph 31.1 mph N/A   Overcast
3:51 PM 84.9 °F 85.0 °F 61.0 °F 44% 29.96 in 10.0 mi SW 16.1 mph 27.6 mph N/A   Mostly Cloudy
4:51 PM 84.9 °F 84.8 °F 60.1 °F 43% 29.94 in 10.0 mi SSW 23.0 mph 31.1 mph N/A   Mostly Cloudy
5:51 PM 84.0 °F 83.5 °F 57.9 °F 41% 29.95 in 10.0 mi SW 20.7 mph 28.8 mph N/A   Mostly Cloudy
6:51 PM 82.9 °F 82.8 °F 59.0 °F 44% 29.94 in 10.0 mi SSW 16.1 mph 26.5 mph N/A   Mostly Cloudy
7:51 PM 81.0 °F 81.3 °F 59.0 °F 47% 29.96 in 10.0 mi SW 11.5 mph - N/A   Mostly Cloudy
8:51 PM 80.1 °F 80.9 °F 60.1 °F 50% 29.96 in 10.0 mi SSW 10.4 mph - N/A   Mostly Cloudy
9:51 PM 77.0 °F - 60.1 °F 56% 29.96 in 10.0 mi South 9.2 mph - N/A   Mostly Cloudy
10:51 PM 78.1 °F - 60.1 °F 54% 29.97 in 10.0 mi South 9.2 mph - N/A   Scattered Clouds
11:51 PM 75.0 °F - 60.1 °F 60% 29.97 in 10.0 mi South 8.1 mph - N/A   Scattered Clouds